Regional Weather Roundup
Issued by NWS

Home | Current Version | Previous Version | Graphics & Text | Print | Product List | Glossary On
Versions: 1 2 3 4 5 6 7 8 9 10 11 12 13 14 15 16 17 18 19 20 21 22 23 24 25 26 27 28 29 30 31 32 33 34 35 36 37 38 39 40 41 42 43 44 45 46 47 48 49 50
000
ASUS43 KMPX 251301
RWRMN
WEATHER ROUNDUP FOR MINNESOTA
NATIONAL WEATHER SERVICE TWIN CITIES/CHANHASSEN MN
800 AM CDT FRI JUL 25 2014


NOTE: "FAIR" INDICATES FEW OR NO CLOUDS BELOW 12,000 FEET WITH NO
SIGNIFICANT WEATHER AND/OR OBSTRUCTIONS TO VISIBILITY. N/A MEANS
CURRENT SKY AND/OR WEATHER CONDITIONS ARE NOT AVAILABLE.

MNZ060>063-068>070-251400-
   Twin Cities Metro

CITY           SKY/WX    TMP DP  RH WIND       PRES   REMARKS
TWIN CITIES    CLOUDY    65  63  93 S6        29.85R
ST PAUL        CLOUDY    65  63  93 SE6       29.85R
CRYSTAL        CLOUDY    67  62  84 E3        29.85R
BLAINE         PTSUNNY   66  64  94 SE6       29.86R
LAKEVILLE      CLOUDY    63  61  94 S6        29.83R
EDEN PRAIRIE   CLOUDY    66  63  90 SE6       29.84R
SOUTH ST PAUL  CLOUDY    65  63  93 SE3       29.85R
LAKE ELMO      RAIN      63  63 100 S5        29.87R
$$
MNZ001>005-007-008-013>017-022>024-027-028-251400-
   Northwest Minnesota

CITY           SKY/WX    TMP DP  RH WIND       PRES   REMARKS
BEMIDJI        MOSUNNY   65  60  82 S9        29.75F
HALLOCK        PTSUNNY   66  63  88 CALM      29.74R
ROSEAU         CLOUDY    64  59  82 CALM      29.74R
WARROAD        PTSUNNY   64  61  88 CALM      29.74F
THIEF RVR FALL PTSUNNY   64  61  88 E5        29.75R
CROOKSTON      MOSUNNY   66  63  88 S10       29.71R
FOSSTON        MOSUNNY   64  61  88 SE10      29.73R
DETROIT LAKES  CLOUDY    64  61  88 S12       29.79R
MOORHEAD       MOSUNNY   68  66  94 S9        29.74S
PARK RAPIDS    MOSUNNY   64  61  90 S13       29.78F
$$
MNZ006-009>011-018-025>026-251400-
   North Central Minnesota

CITY           SKY/WX    TMP DP  RH WIND       PRES   REMARKS
BAUDETTE       MOSUNNY   65  60  84 SE6       29.76F
FLAG ISLAND    PTSUNNY   66  63  88 SE5       29.73S
INTL FALLS     MOSUNNY   66  61  84 S5        29.77F
WASKISH        PTSUNNY   64  63  94 CALM      29.77R
BIG FORK       PTSUNNY   64  61  88 SE3       29.79R
LONGVILLE      PTSUNNY   64  63  94 S7        29.78S
GRAND RAPIDS   PTSUNNY   63  61  94 S8        29.81S
CRANE LAKE     MOSUNNY   61  61 100 CALM      29.81F
ORR            MOSUNNY   63  57  82 SE6       29.77F
COOK           PTSUNNY   64  61  88 SE3       29.81F
$$
MNZ012-019>021-037-251400-
   Northeast Minnesota

CITY           SKY/WX    TMP DP  RH WIND       PRES   REMARKS
DULUTH         CLOUDY    64  58  80 SE8       29.82F
ELY            PTSUNNY   63  59  88 S3        29.83S
HIBBING        CLOUDY    64  60  87 SE8       29.81S
EVELETH        CLOUDY    63  59  88 CALM      29.83S
DULUTH HARBOR  CLOUDY    59  55  88 NE5       29.82F
TWO HARBORS    CLOUDY    61  55  82 NE3       29.81F
SILVER BAY     CLOUDY    61  61 100 CALM      29.82F
GRAND MARAIS     N/A     54  49  83 CALM      29.84F
G MARAIS ARPRT PTSUNNY   61  54  77 CALM      29.88S
$$
MNZ029>031-032-039>041-046>048-054>057-064-251400-
   West Central Minnesota

CITY           SKY/WX    TMP DP  RH WIND       PRES   REMARKS
FERGUS FALLS   CLOUDY    66  63  88 SE9       29.76R
WHEATON        SUNNY     63  63 100 SE12      29.76F
MORRIS         SUNNY     66  64  94 SE6       29.77R
ALEXANDRIA     CLOUDY    65  63  93 SE7       29.82R
ELBOW LAKE     PTSUNNY   66  63  91 SE12G20   29.77R
WADENA         CLOUDY    63  61  94 SE5       29.81R
GLENWOOD       MOSUNNY   66  63  88 E7        29.82R
APPLETON       SUNNY     68  64  88 SE7       29.76R
BENSON         MOSUNNY   66  63  88 SE8       29.77R
ORTONVILLE     SUNNY     66  63  88 SE5       29.75R
MADISON        MOSUNNY   72  66  83 SE8       29.76R
WILLMAR        FAIR      66  64  94 SE8       29.79R
$$
MNZ033>034-036-042>043-049>051-058-059-251400-
   Central Minnesota

CITY           SKY/WX    TMP DP  RH WIND       PRES   REMARKS
ST CLOUD       CLOUDY    66  63  90 E6        29.84R
SAUK CENTRE    CLOUDY    64  63  96 E5        29.83R
PAYNESVILLE    CLOUDY    63  62  98 NE7       29.82R
AITKIN         CLOUDY    66  61  82 S10G18    29.78R
PINE RIVER     CLOUDY    64  61  88 S10       29.84S
BRAINERD       LGT RAIN  62  61  96 S15       29.80F
STAPLES        CLOUDY    64  61  88 SE6       29.82R
LONG PRAIRIE   CLOUDY    63  61  94 E7        29.82R
LITTLE FALLS   CLOUDY    63  61  94 SE7       29.83R
LITCHFIELD     CLOUDY    66  66 100 SE7       29.81R
BUFFALO        CLOUDY    65  62  88 E5        29.86R
MAPLE LAKE     CLOUDY    66  64  95 E3        29.86R
$$
MNZ037-044-045-052-053-251400-
   East Central Minnesota

CITY           SKY/WX    TMP DP  RH WIND       PRES   REMARKS
PRINCETON      CLOUDY    66  63  88 CALM      29.85F
MORA           CLOUDY    64  63  94 S10       29.84F
CAMBRIDGE      DRIZZLE   66  59  77 S7        29.83F
RUSH CITY      CLOUDY    64  62  93 CALM      29.85F
MOOSE LAKE     CLOUDY    63  59  88 SW12G17   29.80R
HINCKLEY       LGT RAIN  63  63 100 SE7       29.82F
CLOQUET        CLOUDY    63  59  88 CALM      29.82S
MCGREGOR       CLOUDY    64  63  94 S8        29.82R
$$
MNZ071>073-080-081-089-090-097-098-251400-
   Southwest Minnesota

CITY           SKY/WX    TMP DP  RH WIND       PRES   REMARKS
MONTEVIDEO     MOSUNNY   70  66  88 S8        29.76R
GRANITE FALLS  PTSUNNY   67  64  89 SE9       29.78R
CANBY          MOSUNNY   70  64  82 SE8       29.77R
MARSHALL       PTSUNNY   70  61  73 SE14G20   29.75R
REDWOOD FALLS  CLOUDY    68  64  87 S15       29.76F
OLIVIA         PTSUNNY   68  64  88 SE6       29.77R
PIPESTONE      MOSUNNY   66  61  82 S22G28    29.76F
WINDOM         CLOUDY    66  61  82 S20G33    29.76F
WORTHINGTON    PTSUNNY   66  61  82 S18G29    29.81F
JACKSON        PTSUNNY   63  61  94 S22G30    29.83S
TRACY          PTSUNNY   68  63  83 S20G28    29.74R
SLAYTON        PTSUNNY   66  62  86 S22G29    29.77F
$$
MNZ065>067-074>077-082>085-091>093-251400-
   South Central Minnesota

CITY           SKY/WX    TMP DP  RH WIND       PRES   REMARKS
MANKATO        CLOUDY    64  61  88 S9G17     29.81F
NEW ULM        CLOUDY    66  66 100 S12       29.77F
ST JAMES       CLOUDY    70  64  83 S13G18    29.78F
FAIRMONT       CLOUDY    66  59  77 S21G29    29.79F
GLENCOE        CLOUDY    66  63  87 SE10      29.79F
FARIBAULT      CLOUDY    66  61  82 SE8       29.86R
OWATONNA       CLOUDY    64  61  88 SE12      29.85F
WASECA         DRIZZLE   63  57  82 S10       29.86R
ALBERT LEA     RAIN      64  63  94 S13G21    29.84F
$$
MNZ078>079-086>088-094>096-251400-
   Southeast Minnesota

CITY           SKY/WX    TMP DP  RH WIND       PRES   REMARKS
ROCHESTER      CLOUDY    63  60  90 S16       29.89R
RED WING       LGT RAIN  64  63  94 S6        29.86R
STANTON        CLOUDY    65  61  87 S10G17    29.82F
DODGE CENTER   CLOUDY    64  63  94 S13       29.87R
WINONA         LGT RAIN  63  61  94 S7        29.84F
AUSTIN         LGT RAIN  63  61  94 S9G16     29.90R
PRESTON        CLOUDY    61  61 100 S12G21    29.89R
$$
ABBREVIATIONS USED IN REMARKS
   TC - TEMPERATURES IN CELSIUS
  WCI - WIND CHILL INDEX
   HX - HEAT INDEX
  VSB - VISIBILITY
$$



USA.gov is the U.S. government's official web portal to all federal, state and local government web resources and services.